Погода в Петриковке

Украина / Днепропетровская область     48°43′36″N   34°37′53″E
темп.,
°C
ветер,
м/с
пор.,
м/с
влажн.,
%
обл.,
%
осадки,
мм/ч
давл.,
гПа
погр.,
м
21 апреля, ср
ср2100:00+9сз5992100 0.9 1005468
03:00+8з5109182 1.2 1008401
06:00+6зюз4996100 0.0 1010306
09:00+10з587322 0.0 1012730
12:00+13зюз5852100 0.2 10131948
15:00+13зюз595557 0.3 10141479
18:00+13зюз485980 0.2 10151289
21:00+9зюз337327 0.3 101741
22 апреля, чт
чт2200:00+8зюз227940 0.0 101816
03:00+7юз22825 0.0 101918
06:00+6ююз22862 0.0 102020
09:00+12ююз34681 0.0 1020418
12:00+16юз44493 0.0 10201752
15:00+17ююз4540100 0.0 10192495
18:00+14ююз375998 0.0 1019220
21:00+12ю366275 0.0 102095
23 апреля, пт
пт2300:00+11ю497397 0.0 1020233
03:00+9ю49873 0.0 1019217
06:00+8ю410896 0.0 1019259
09:00+13ю710675 0.1 1019640
12:00+17ююз810526 0.0 10171498
15:00+17ююз91253100 0.8 10151882
18:00+15ююз81359100 1.3 10141392
21:00+11зюз4889100 3.6 1015551
24 апреля, сб
сб2400:00+7зсз8991100 2.1 1014487
03:00+6сз598759 2.4 1016589
06:00+4з38923 0.0 1016335
09:00+8з57633 0.0 1017929
12:00+11з584396 0.0 10172124
15:00+10з7959100 0.1 10161540
18:00+8зсз796362 1.1 10171325
21:00+5з511715 1.3 1019460
25 апреля, вс
вс2500:00+4з410753 0.0 1019305
03:00+3з410780 0.0 1019288
06:00+2зюз38810 0.0 1020184
09:00+7з57610 0.0 1020882
12:00+10з684138 0.0 10202167
15:00+12з693465 0.0 10192460
18:00+11зсз564328 0.0 10181578
21:00+6зсз5970100 0.1 1019302